Weather History for KSPS - February, 2013

Change the Weather History Date:

Monday, February 25, 2013

  Actual Average Record
Temperature  
Mean Temperature 45 °F 48 °F  
Max Temperature 55 °F 61 °F 87 °F (2008)
Min Temperature 34 °F 36 °F 7 °F (1960)
Degree Days  
Heating Degree Days 20 17  
Month to date heating degree days 450 489  
Since 1 July heating degree days 2149 2399  
Moisture  
Dew Point 38 °F    
Average Humidity 74    
Maximum Humidity 93    
Minimum Humidity 54    
Precipitation  
Precipitation 0.28 in 0.07 in 0.73 in (1982)
Month to date precipitation 2.05 1.51  
Year to date precipitation 2.69 2.65  
Snow  
Snow T in 0.00 in - ()
Month to date snowfall T 0.6  
Since 1 July snowfall 3.5 3.3  
Snow Depth -    
Sea Level Pressure  
Sea Level Pressure 29.56 in    
Wind  
Wind Speed 20 mph (NNE)    
Max Wind Speed 33 mph    
Max Gust Speed 41 mph    
Visibility 8 miles    
Events Rain , Snow , Thunderstorm    
T = Trace of Precipitation, MM = Missing Value Source: NWS Daily Summary

Daily Weather History Graph

Daily Weather History Graph

Search for Another Location

Airport or City:

Trip Planner

Search our weather history database for the weather conditions in past years. The results will help you decide how hot, cold, wet, or windy it might be!

Date:

Astronomy

Feb. 25, 2013 Rise Set
Actual Time 7:07 AM CST 6:27 PM CST
Civil Twilight 6:41 AM CST 6:52 PM CST
Nautical Twilight 6:12 AM CST 7:21 PM CST
Astronomical Twilight 5:44 AM CST 7:50 PM CST
Moon 6:38 PM CST (2/25) 6:40 AM CST (2/25)
Length of Visible Light 12h 10m
Length of Day
11h 20m
Full, 100% of the Moon is Illuminated
Feb 25
Full
Feb 25
Full
Mar 4
Last Quarter
Mar 11
New
Mar 19
First Quarter

Hourly Weather History & Observations

Time (CST) Temp. Windchill Dew Point Humidity Pressure Visibility Wind Dir Wind Speed Gust Speed Precip Events Conditions
12:52 AM 54.0 °F - 37.9 °F 55% 29.61 in 10.0 mi NNE 17.3 mph 24.2 mph N/A   Overcast
1:52 AM 51.1 °F - 39.9 °F 66% 29.59 in 10.0 mi NE 16.1 mph - 0.00 in Rain Light Rain
2:50 AM 50.0 °F - 39.2 °F 66% 29.55 in 10.0 mi ENE 19.6 mph - 0.00 in Thunderstorm Overcast
2:52 AM 50.0 °F - 39.9 °F 68% 29.53 in 10.0 mi ENE 20.7 mph - 0.00 in Thunderstorm Overcast
3:18 AM 48.2 °F - 42.8 °F 82% 29.53 in 9.0 mi ENE 17.3 mph - 0.02 in Rain , Thunderstorm Light Rain
3:20 AM 48.2 °F - 42.8 °F 82% 29.53 in 9.0 mi ENE 18.4 mph - 0.02 in Rain , Thunderstorm Light Thunderstorms and Rain
3:52 AM 46.4 °F 40.1 °F 42.8 °F 87% 29.54 in 4.0 mi East 15.0 mph - N/A Rain , Thunderstorm Light Thunderstorms and Rain
4:17 AM 48.2 °F - 42.8 °F 82% 29.54 in 10.0 mi East 12.7 mph - 0.01 in Thunderstorm Overcast
4:26 AM 48.2 °F - 42.8 °F 82% 29.53 in 10.0 mi East 10.4 mph - 0.01 in Rain Light Rain
4:52 AM 48.0 °F - 42.1 °F 80% 29.53 in 10.0 mi ESE 16.1 mph - 0.01 in   Overcast
5:52 AM 46.9 °F - 43.0 °F 86% 29.53 in 10.0 mi ESE 9.2 mph - 0.02 in Rain Light Rain
6:52 AM 46.0 °F 41.4 °F 44.1 °F 93% 29.56 in 10.0 mi North 9.2 mph - 0.00 in Rain Light Rain
7:52 AM 45.0 °F 38.2 °F 43.0 °F 93% 29.52 in 10.0 mi NE 15.0 mph - 0.00 in Rain Light Rain
8:52 AM 44.1 °F 38.1 °F 42.1 °F 93% 29.51 in 10.0 mi ENE 11.5 mph - 0.00 in   Mostly Cloudy
9:14 AM 44.6 °F 36.9 °F 42.8 °F 93% 29.52 in 10.0 mi East 18.4 mph - N/A   Overcast
9:41 AM 44.6 °F 42.2 °F 42.8 °F 93% 29.53 in 7.0 mi ESE 4.6 mph - N/A   Overcast
9:52 AM 45.0 °F 42.6 °F 43.0 °F 93% 29.51 in 5.0 mi ENE 4.6 mph - N/A   Overcast
10:52 AM 44.1 °F 37.1 °F 43.0 °F 96% 29.51 in 5.0 mi NE 15.0 mph - N/A   Overcast
11:52 AM 45.0 °F 36.6 °F 43.0 °F 93% 29.49 in 8.0 mi NE 21.9 mph 28.8 mph 0.03 in Rain Light Rain
12:52 PM 44.1 °F 36.2 °F 41.0 °F 89% 29.49 in 10.0 mi NE 18.4 mph - 0.00 in   Overcast
1:52 PM 42.1 °F 32.8 °F 41.0 °F 96% 29.47 in 10.0 mi North 21.9 mph - N/A Rain Light Rain
2:26 PM 39.2 °F 28.5 °F 37.4 °F 93% 29.49 in 9.0 mi North 24.2 mph 29.9 mph 0.00 in Rain Light Rain
2:34 PM 37.4 °F 26.1 °F 35.6 °F 93% 29.50 in 6.0 mi North 24.2 mph 32.2 mph 0.00 in Rain Light Rain
2:52 PM 37.0 °F 25.4 °F 35.1 °F 93% 29.51 in 5.0 mi North 25.3 mph 33.4 mph 0.00 in Rain Light Rain
3:09 PM 35.6 °F 23.0 °F 35.6 °F 100% 29.52 in 2.0 mi North 27.6 mph 33.4 mph 0.02 in Rain Light Rain
3:21 PM 35.6 °F 23.0 °F 35.6 °F 100% 29.52 in 4.0 mi North 27.6 mph 33.4 mph 0.04 in Rain Light Rain
3:52 PM 35.1 °F 23.0 °F 34.0 °F 96% 29.54 in 6.0 mi NNW 24.2 mph 31.1 mph 0.05 in Rain , Snow Light Rain
4:15 PM 33.8 °F 21.9 °F 33.8 °F 100% 29.54 in 2.5 mi NNW 21.9 mph 33.4 mph 0.02 in Rain , Snow Light Rain
4:31 PM 35.6 °F 23.4 °F 33.8 °F 93% 29.55 in 3.0 mi NNW 25.3 mph 33.4 mph 0.02 in Rain , Snow Light Rain
4:48 PM 35.6 °F 23.4 °F 33.8 °F 93% 29.55 in 10.0 mi NNW 25.3 mph 33.4 mph 0.02 in Rain Light Rain
4:52 PM 36.0 °F 24.7 °F 33.1 °F 89% 29.56 in 10.0 mi NNW 21.9 mph 33.4 mph 0.02 in Rain Light Rain
5:52 PM 35.1 °F 22.5 °F 33.1 °F 92% 29.59 in 5.0 mi NW 26.5 mph 32.2 mph 0.01 in Rain Light Rain
6:03 PM 35.6 °F 23.4 °F 33.8 °F 93% 29.59 in 4.0 mi NW 25.3 mph 33.4 mph 0.00 in Rain Light Rain
6:25 PM 35.6 °F 23.2 °F 33.8 °F 93% 29.60 in 9.0 mi NW 26.5 mph 33.4 mph 0.00 in Rain Light Rain
6:52 PM 36.0 °F 23.7 °F 34.0 °F 93% 29.62 in 10.0 mi NW 26.5 mph 33.4 mph 0.00 in Rain Light Rain
7:52 PM 36.0 °F 23.0 °F 34.0 °F 93% 29.65 in 10.0 mi NW 29.9 mph 39.1 mph 0.01 in Rain Light Rain
8:39 PM 35.6 °F 22.7 °F 33.8 °F 93% 29.67 in 10.0 mi NNW 28.8 mph 36.8 mph 0.00 in Rain Light Rain
8:52 PM 36.0 °F 23.0 °F 32.0 °F 86% 29.70 in 10.0 mi NW 29.9 mph 41.4 mph 0.00 in   Overcast
9:52 PM 36.0 °F 23.2 °F 32.0 °F 86% 29.73 in 10.0 mi NNW 28.8 mph 36.8 mph N/A   Overcast
10:52 PM 36.0 °F 24.4 °F 32.0 °F 86% 29.76 in 10.0 mi NW 23.0 mph 34.5 mph N/A   Overcast
11:52 PM 36.0 °F 23.9 °F 32.0 °F 86% 29.75 in 9.0 mi NW 25.3 mph 32.2 mph N/A   Overcast